Über Taizhou
Group: 3 satellites
Beschreibung wird geladen...
Live-Position
3D-Globus wird geladen...
Nächste Überflüge
Höhenverlauf
Altitude vs Time
uPlot chart will show altitude changes over time
Zweizeiliger Elementsatz
1 63986U 25100E 26073.82477181 .00008817 00000-0 42575-3 0 9996
2 63986 97.4266 148.9787 0003743 359.7021 0.4211 15.18885767 46280
Epoch: 14. März 2026 •
Age: 12 hours
Aktueller Status
Höhe 514.1 km
Geschwindigkeit 7.61 km/s
Subsatellitenpunkt 16.23°N,
45°E
Startdatum 14. Mai 2025
Alter 0.8 years
Typ other
Technische Details
Klassifizierung Payload
Masse 50.00 kg
Trockenmasse 50.00 kg
Gesamtmasse 50.00 kg
Länge 0.30 m
Durchmesser 0.30 m
Spannweite 0.30 m
Form Box + 2 pan
Hersteller GUOX
Bus-Typ XSD
Phasenstatus In Orbit
Besitzer/Staat GUOX/ZJLAB/CN
Große Konstellationen
Loading constellations...